Location: T�bingen+AIT
(48.5342°N, 9.0700°E)
Time: 20:25:46
(UTC+02:00)

Cosmos 990 Rocket - Pass Details

Date: 14 September 2017
Orbit: 747 x 769 km, 74.0° (Epoch: 19 September)

Event Time Altitude Azimuth Distance (km) Brightness Sun altitude
Rises 21:29:23 0° 336° (NNW) 3,228 8.1 -18.4°
Reaches altitude 10° 21:31:46 10° 337° (NNW) 2,295 7.2 -18.7°
Maximum altitude 21:36:59 89° 249° (WSW) 760 3.9 -19.5°
Enters shadow 21:39:26 32° 160° (SSE) 1,273 4.7 -19.8°
